星链-30066 (STARLINK-30066 )

导读 | 星芒AI

STARLINK-30066 是 SpaceX Starlink 卫星互联网项目中的一颗低轨道卫星。该卫星属于 Starlink 群体的一部分,旨在为全球用户提供高速互联网服务。它运行在约 550 公里的轨道高度,采用先进的推进和通信技术,支持宽带数据传输。Starlink 项目致力于改善偏远地区的网络接入,同时为城市用户提供低延迟连接。STARLINK-30066 的发射和运行有助于扩大 Starlink 网络的覆盖范围和稳定性。

基本信息
目录编号:
56704
目录名称:
STARLINK-30066
国际标识:
2023-067S
轨道中心:
EARTH
卫星名称:
星链-30066
卫星全名:
星链-30066 (STARLINK-30066 )
卫星状态:
在轨 (已飞行944 天)
发射日期:
2023-05-19 UTC
国别 :
美国 (US)
星等 :
--
轨道信息
数据来源 国际轨道数据
星历时间: 2025-12-18T15:46:55+0800
9小时前
查看轨道信息
半长轴: 6937.206km
偏心率: 0.0001065
轨道倾角: 43.003°
近地点辐角 278.113°
升交点赤经 356.299°
平近点角 81.959°
近地点: 558.332km
远地点: 559.81km
周期: 95.838分钟
每日圈数: 15.025396
详细信息
固有亮度:
5
最大亮度:
0.3
卫星平台:
Starlink v2.0 mini
覆盖范围:
全球
运营商:
太空探索技术公司
运营商所在国:
美国
制造商(研发单位):
太空探索技术公司
制造商所在国:
美国
使用方式:
暂无
卫星简介
星链(Starlink)计划是由太空探索技术公司(SpaceX)提出的一个巨型低轨卫星互联网星座项目,计划在2019年至2024年间在太空搭建由约1.2万颗卫星组成的“星链”网络,其中1584颗将部署在地球上空550千米处的近地轨道,并从2020年开始工作。该卫星仍在工作。
2D轨道图
3D轨道图
轨道高度分析图
轨道倾角分析图
轨道综合分析图
查看轨道综合分析图